KLM1101 LICA-LCLK

Flight info

Callsign KLM1101
Flight time 2h 11m
Altitude 37000
Route CRN DCT RUTOM UN604 ATV UL607 KEA UL995 RDS UM601 EVENO M601 BONEK
Aircraft L101/H-SDFGHIRWXY/S

Departure

Time 2026-04-17 08:18
Airport Lamezia Terme Sant'Eufemia International Airport (LICA)

Arrival

Time 2026-04-17 10:30
Airport Larnaca International Airport (LCLK)
Time Latitude Longitude Altitude Speed Heading
2026-04-17 07:54 38.90859 16.24521 40 ft 0 kts 45°
2026-04-17 08:02 38.90857 16.24518 40 ft 2 kts 44°
2026-04-17 08:02 38.90842 16.24503 40 ft 3 kts 19°
2026-04-17 08:03 38.90823 16.24499 40 ft 3 kts 353°
2026-04-17 08:03 38.90804 16.24504 37 ft 2 kts 349°
2026-04-17 08:03 38.90788 16.24507 38 ft 1 kts
2026-04-17 08:03 38.90786 16.24506 39 ft 8 kts
2026-04-17 08:11 38.90789 16.24507 40 ft 2 kts
2026-04-17 08:11 38.90804 16.24519 39 ft 5 kts 42°
2026-04-17 08:11 38.90815 16.24595 41 ft 7 kts 96°
2026-04-17 08:11 38.90793 16.24693 39 ft 17 kts 113°
2026-04-17 08:12 38.90769 16.24848 43 ft 16 kts 92°
2026-04-17 08:12 38.90754 16.24997 44 ft 23 kts 103°
2026-04-17 08:12 38.90730 16.25161 45 ft 6 kts 99°
2026-04-17 08:12 38.90698 16.25260 46 ft 18 kts 127°
2026-04-17 08:13 38.90620 16.25442 43 ft 30 kts 99°
2026-04-17 08:13 38.90583 16.25739 44 ft 27 kts 98°
2026-04-17 08:13 38.90552 16.26026 46 ft 24 kts 99°
2026-04-17 08:14 38.90497 16.26185 48 ft 0 kts 147°
2026-04-17 08:15 38.90487 16.26194 49 ft 8 kts 147°
2026-04-17 08:15 38.90440 16.26229 48 ft 3 kts 150°
2026-04-17 08:16 38.90369 16.26268 48 ft 17 kts 167°
2026-04-17 08:16 38.90323 16.26267 49 ft 3 kts 199°
2026-04-17 08:16 38.90298 16.26199 49 ft 17 kts 271°
2026-04-17 08:16 38.90324 16.26039 50 ft 0 kts 262°
2026-04-17 08:17 38.90323 16.26029 48 ft 6 kts 265°
2026-04-17 08:17 38.90326 16.25983 47 ft 0 kts 281°
2026-04-17 08:17 38.90332 16.25944 48 ft 23 kts 281°
2026-04-17 08:17 38.90391 16.25490 45 ft 80 kts 278°
2026-04-17 08:18 38.90502 16.24536 41 ft 136 kts 279°
2026-04-17 08:18 38.90664 16.23216 313 ft 155 kts 277°
2026-04-17 08:18 38.90857 16.21807 838 ft 168 kts 278°
2026-04-17 08:18 38.91065 16.20329 1749 ft 166 kts 279°
2026-04-17 08:19 38.91368 16.18882 2901 ft 173 kts 298°
2026-04-17 08:19 38.92277 16.17889 3979 ft 177 kts 339°
2026-04-17 08:19 38.93463 16.17874 5093 ft 176 kts 19°
2026-04-17 08:19 38.94468 16.18844 6041 ft 192 kts 49°
2026-04-17 08:20 38.95140 16.20419 6926 ft 211 kts 66°
2026-04-17 08:20 38.95554 16.22307 7777 ft 230 kts 75°
2026-04-17 08:20 38.95821 16.24409 8641 ft 248 kts 79°
2026-04-17 08:20 38.96013 16.26697 9426 ft 266 kts 82°
2026-04-17 08:21 38.96170 16.29136 10201 ft 280 kts 83°
2026-04-17 08:21 38.96307 16.31664 10932 ft 286 kts 84°
2026-04-17 08:21 38.96432 16.34236 11675 ft 290 kts 84°
2026-04-17 08:21 38.96549 16.36837 12440 ft 293 kts 84°
2026-04-17 08:22 38.96665 16.39427 13253 ft 284 kts 85°
2026-04-17 08:22 38.96764 16.41818 14525 ft 251 kts 84°
2026-04-17 08:22 38.96842 16.43941 15705 ft 230 kts 84°
2026-04-17 08:22 38.96920 16.45972 16478 ft 225 kts 84°
2026-04-17 08:23 38.97000 16.47964 17181 ft 223 kts 85°
2026-04-17 08:23 38.97084 16.49970 17838 ft 226 kts 84°
2026-04-17 08:23 38.97171 16.51999 18482 ft 229 kts 83°
2026-04-17 08:23 38.97265 16.54087 19023 ft 241 kts 84°
2026-04-17 08:24 38.97369 16.56315 19518 ft 257 kts 85°
2026-04-17 08:24 38.97478 16.58673 20008 ft 272 kts 85°
2026-04-17 08:24 38.97591 16.61153 20522 ft 284 kts 85°
2026-04-17 08:24 38.97708 16.63740 21024 ft 296 kts 85°
2026-04-17 08:25 38.97828 16.66424 21544 ft 306 kts 85°
2026-04-17 08:25 38.97946 16.69158 22063 ft 315 kts 86°
2026-04-17 08:25 38.98067 16.72002 22610 ft 322 kts 86°
2026-04-17 08:25 38.98190 16.74908 23154 ft 329 kts 86°
2026-04-17 08:26 38.98314 16.77869 23675 ft 335 kts 86°
2026-04-17 08:26 38.98440 16.80878 24144 ft 339 kts 86°
2026-04-17 08:26 38.98566 16.83926 24612 ft 344 kts 87°
2026-04-17 08:26 38.98693 16.87008 25085 ft 347 kts 87°
2026-04-17 08:27 38.98822 16.90119 25518 ft 350 kts 87°
2026-04-17 08:27 38.98951 16.93252 25997 ft 353 kts 87°
2026-04-17 08:27 38.99084 16.96452 26372 ft 367 kts 87°
2026-04-17 08:27 38.99225 16.99806 26905 ft 385 kts 87°
2026-04-17 08:28 38.99373 17.03346 27102 ft 406 kts 89°
2026-04-17 08:28 38.99187 17.07021 27237 ft 421 kts 102°
2026-04-17 08:28 38.98392 17.10718 27385 ft 435 kts 108°
2026-04-17 08:28 38.97486 17.14492 27544 ft 448 kts 105°
2026-04-17 08:29 38.96705 17.18430 27676 ft 461 kts 103°
2026-04-17 08:29 38.95963 17.22486 27828 ft 472 kts 103°
2026-04-17 08:29 38.95132 17.26611 28032 ft 481 kts 105°
2026-04-17 08:29 38.94187 17.30752 28482 ft 484 kts 107°
2026-04-17 08:30 38.93185 17.34888 29045 ft 485 kts 107°
2026-04-17 08:30 38.92179 17.39032 29589 ft 487 kts 107°
2026-04-17 08:30 38.91196 17.43136 30141 ft 488 kts 107°
2026-04-17 08:30 38.90200 17.47304 30628 ft 489 kts 107°
2026-04-17 08:31 38.89198 17.51476 31126 ft 488 kts 108°
2026-04-17 08:31 38.88192 17.55631 31636 ft 486 kts 108°
2026-04-17 08:31 38.87185 17.59768 32145 ft 485 kts 108°
2026-04-17 08:31 38.86179 17.63899 32657 ft 484 kts 108°
2026-04-17 08:32 38.85178 17.68001 33195 ft 482 kts 108°
2026-04-17 08:32 38.84175 17.72106 33743 ft 480 kts 108°
2026-04-17 08:32 38.83177 17.76184 34239 ft 479 kts 109°
2026-04-17 08:32 38.82180 17.80250 34717 ft 477 kts 108°
2026-04-17 08:33 38.81519 17.82941 35043 ft 477 kts 108°
2026-04-17 08:33 38.80522 17.86995 35533 ft 477 kts 108°
2026-04-17 08:33 38.79525 17.91046 36036 ft 476 kts 107°
2026-04-17 08:33 38.78528 17.95087 36553 ft 475 kts 107°
2026-04-17 08:34 38.77532 17.99124 36820 ft 472 kts 107°
2026-04-17 08:34 38.76544 18.03116 37074 ft 469 kts 107°
2026-04-17 08:34 38.75556 18.07101 37064 ft 469 kts 107°
2026-04-17 08:35 38.73584 18.15032 36966 ft 467 kts 107°
2026-04-17 08:35 38.71610 18.22938 36993 ft 465 kts 107°
2026-04-17 08:36 38.69630 18.30842 36984 ft 466 kts 107°
2026-04-17 08:36 38.67648 18.38736 36977 ft 466 kts 107°
2026-04-17 08:37 38.65654 18.46641 36977 ft 466 kts 107°
2026-04-17 08:37 38.63672 18.54482 36973 ft 467 kts 107°
2026-04-17 08:38 38.61670 18.62379 36969 ft 467 kts 107°
2026-04-17 08:38 38.59660 18.70275 36976 ft 466 kts 107°
2026-04-17 08:39 38.57649 18.78152 36969 ft 467 kts 107°
2026-04-17 08:39 38.55623 18.86060 36981 ft 468 kts 107°
2026-04-17 08:40 38.53588 18.93981 36964 ft 469 kts 107°
2026-04-17 08:40 38.51791 19.01980 36961 ft 468 kts 101°
2026-04-17 08:41 38.50296 19.10071 36960 ft 469 kts 103°
2026-04-17 08:41 38.48695 19.18214 36951 ft 475 kts 103°
2026-04-17 08:42 38.47054 19.26406 36949 ft 477 kts 103°
2026-04-17 08:42 38.45401 19.34606 36951 ft 477 kts 104°
2026-04-17 08:43 38.43747 19.42797 36949 ft 477 kts 103°
2026-04-17 08:43 38.42099 19.50951 36946 ft 478 kts 104°
2026-04-17 08:44 38.40452 19.59167 36941 ft 478 kts 104°
2026-04-17 08:44 38.38813 19.67389 36940 ft 478 kts 104°
2026-04-17 08:45 38.37175 19.75610 36939 ft 479 kts 103°
2026-04-17 08:45 38.35537 19.83827 36937 ft 478 kts 104°
2026-04-17 08:46 38.33921 19.92048 36939 ft 478 kts 104°
2026-04-17 08:46 38.32316 20.00270 36933 ft 478 kts 103°
2026-04-17 08:47 38.30715 20.08491 36928 ft 478 kts 103°
2026-04-17 08:47 38.29124 20.16656 36928 ft 478 kts 103°
2026-04-17 08:48 38.27519 20.24873 36921 ft 478 kts 103°
2026-04-17 08:48 38.25908 20.33097 36918 ft 479 kts 103°
2026-04-17 08:49 38.24298 20.41311 36914 ft 478 kts 104°
2026-04-17 08:49 38.22688 20.49525 36911 ft 479 kts 104°
2026-04-17 08:50 38.21084 20.57744 36911 ft 479 kts 104°
2026-04-17 08:50 38.19482 20.65969 36922 ft 479 kts 104°
2026-04-17 08:51 38.17891 20.74140 36921 ft 479 kts 104°
2026-04-17 08:51 38.16281 20.82411 36920 ft 479 kts 104°
2026-04-17 08:52 38.14714 20.90616 36910 ft 476 kts 104°
2026-04-17 08:52 38.13182 20.98731 36915 ft 476 kts 104°
2026-04-17 08:53 38.11642 21.06910 36908 ft 476 kts 104°
2026-04-17 08:53 38.10105 21.15086 36913 ft 476 kts 104°
2026-04-17 08:54 38.08578 21.23236 36908 ft 473 kts 104°
2026-04-17 08:54 38.07054 21.31380 36916 ft 475 kts 104°
2026-04-17 08:55 38.05526 21.39550 36909 ft 476 kts 104°
2026-04-17 08:55 38.03995 21.47732 36915 ft 476 kts 104°
2026-04-17 08:56 38.02445 21.55893 36907 ft 476 kts 104°
2026-04-17 08:56 38.00831 21.64039 36892 ft 477 kts 104°
2026-04-17 08:57 37.99193 21.72171 36894 ft 476 kts 105°
2026-04-17 08:57 37.97544 21.80300 36912 ft 474 kts 105°
2026-04-17 08:58 37.95912 21.88385 36904 ft 472 kts 105°
2026-04-17 08:58 37.94298 21.96434 36909 ft 472 kts 105°
2026-04-17 08:59 37.92688 22.04473 36902 ft 470 kts 105°
2026-04-17 08:59 37.91077 22.12514 36915 ft 471 kts 105°
2026-04-17 09:00 37.89481 22.20515 36917 ft 467 kts 105°
2026-04-17 09:00 37.87905 22.28475 36933 ft 465 kts 105°
2026-04-17 09:01 37.86334 22.36420 36933 ft 465 kts 105°
2026-04-17 09:01 37.84770 22.44325 36916 ft 466 kts 105°
2026-04-17 09:02 37.83191 22.52263 36926 ft 465 kts 104°
2026-04-17 09:02 37.81592 22.60198 36922 ft 465 kts 105°
2026-04-17 09:03 37.79988 22.68142 36915 ft 467 kts 105°
2026-04-17 09:03 37.78386 22.76066 36913 ft 465 kts 105°
2026-04-17 09:04 37.76764 22.83996 36922 ft 466 kts 105°
2026-04-17 09:04 37.75106 22.91934 36918 ft 468 kts 105°
2026-04-17 09:05 37.73432 22.99874 36900 ft 468 kts 105°
2026-04-17 09:05 37.71753 23.07816 36908 ft 467 kts 105°
2026-04-17 09:06 37.70074 23.15758 36907 ft 470 kts 105°
2026-04-17 09:06 37.68421 23.23596 36900 ft 471 kts 105°
2026-04-17 09:07 37.66646 23.31551 36901 ft 471 kts 108°
2026-04-17 09:07 37.64573 23.39390 36889 ft 471 kts 109°
2026-04-17 09:08 37.62384 23.47176 36891 ft 470 kts 110°
2026-04-17 09:08 37.60162 23.54930 36889 ft 469 kts 110°
2026-04-17 09:09 37.57979 23.62483 36888 ft 470 kts 110°
2026-04-17 09:09 37.55724 23.70208 36881 ft 470 kts 110°
2026-04-17 09:10 37.52330 23.81775 36879 ft 467 kts 110°
2026-04-17 09:10 37.50092 23.89398 36857 ft 467 kts 110°
2026-04-17 09:11 37.47858 23.97006 36853 ft 466 kts 110°
2026-04-17 09:11 37.45606 24.04670 36878 ft 466 kts 110°
2026-04-17 09:12 37.43362 24.12322 36878 ft 466 kts 110°
2026-04-17 09:12 37.41137 24.19966 36866 ft 465 kts 110°
2026-04-17 09:13 37.38917 24.27616 36863 ft 466 kts 110°
2026-04-17 09:13 37.36703 24.35259 36847 ft 466 kts 110°
2026-04-17 09:14 37.34488 24.42916 36878 ft 466 kts 110°
2026-04-17 09:14 37.32283 24.50581 36866 ft 468 kts 110°
2026-04-17 09:15 37.30078 24.58266 36867 ft 467 kts 110°
2026-04-17 09:15 37.27878 24.65943 36868 ft 467 kts 110°
2026-04-17 09:16 37.25677 24.73619 36854 ft 468 kts 110°
2026-04-17 09:16 37.23485 24.81247 36853 ft 468 kts 110°
2026-04-17 09:17 37.21273 24.88939 36859 ft 468 kts 110°
2026-04-17 09:17 37.19065 24.96608 36831 ft 468 kts 110°
2026-04-17 09:18 37.16854 25.04287 36821 ft 468 kts 110°
2026-04-17 09:18 37.14647 25.11993 36807 ft 471 kts 110°
2026-04-17 09:19 37.12439 25.19713 36808 ft 470 kts 110°
2026-04-17 09:19 37.10228 25.27438 36800 ft 471 kts 110°
2026-04-17 09:20 37.08022 25.35151 36819 ft 471 kts 110°
2026-04-17 09:20 37.05837 25.42825 36828 ft 470 kts 110°
2026-04-17 09:21 37.03764 25.50604 36817 ft 472 kts 107°
2026-04-17 09:21 37.01987 25.58488 36841 ft 472 kts 105°
2026-04-17 09:22 37.00316 25.66421 36819 ft 470 kts 106°
2026-04-17 09:22 36.98726 25.74330 36825 ft 467 kts 106°
2026-04-17 09:23 36.97184 25.82214 36822 ft 467 kts 105°
2026-04-17 09:23 36.95649 25.90108 36821 ft 466 kts 105°
2026-04-17 09:24 36.94114 25.98003 36824 ft 467 kts 105°
2026-04-17 09:24 36.92609 26.05898 36813 ft 467 kts 105°
2026-04-17 09:25 36.91373 26.12453 36816 ft 466 kts 105°
2026-04-17 09:25 36.89887 26.20348 36799 ft 467 kts 105°
2026-04-17 09:26 36.88406 26.28242 36804 ft 467 kts 105°
2026-04-17 09:26 36.86941 26.36072 36780 ft 465 kts 105°
2026-04-17 09:27 36.85472 26.43934 36791 ft 465 kts 105°
2026-04-17 09:27 36.84007 26.51795 36792 ft 465 kts 105°
2026-04-17 09:28 36.82329 26.59517 36777 ft 463 kts 108°
2026-04-17 09:28 36.80394 26.67195 36781 ft 463 kts 110°
2026-04-17 09:29 36.78384 26.74813 36773 ft 463 kts 110°
2026-04-17 09:29 36.76344 26.82431 36774 ft 462 kts 110°
2026-04-17 09:30 36.74295 26.90036 36771 ft 463 kts 110°
2026-04-17 09:30 36.72225 26.97657 36778 ft 465 kts 110°
2026-04-17 09:31 36.70146 27.05285 36773 ft 465 kts 110°
2026-04-17 09:31 36.68080 27.12861 36778 ft 465 kts 110°
2026-04-17 09:32 36.66002 27.20485 36754 ft 465 kts 110°
2026-04-17 09:32 36.63946 27.28109 36756 ft 464 kts 110°
2026-04-17 09:33 36.61899 27.35734 36748 ft 464 kts 110°
2026-04-17 09:33 36.59854 27.43366 36751 ft 464 kts 110°
2026-04-17 09:34 36.57813 27.50987 36749 ft 464 kts 110°
2026-04-17 09:34 36.55795 27.58543 36749 ft 463 kts 110°
2026-04-17 09:35 36.53766 27.66145 36743 ft 463 kts 110°
2026-04-17 09:35 36.51740 27.73736 36742 ft 463 kts 110°
2026-04-17 09:36 36.49712 27.81332 36744 ft 463 kts 110°
2026-04-17 09:36 36.47683 27.88927 36743 ft 463 kts 110°
2026-04-17 09:37 36.45653 27.96520 36744 ft 463 kts 110°
2026-04-17 09:37 36.43621 28.04110 36750 ft 463 kts 110°
2026-04-17 09:38 36.41593 28.11701 36752 ft 464 kts 110°
2026-04-17 09:38 36.39583 28.19275 36750 ft 464 kts 110°
2026-04-17 09:39 36.37562 28.26909 36747 ft 464 kts 110°
2026-04-17 09:39 36.35530 28.34581 36758 ft 464 kts 110°
2026-04-17 09:40 36.33520 28.42175 36739 ft 464 kts 110°
2026-04-17 09:40 36.31501 28.49812 36741 ft 465 kts 110°
2026-04-17 09:41 36.29483 28.57428 36737 ft 465 kts 111°
2026-04-17 09:41 36.27301 28.64969 36739 ft 465 kts 112°
2026-04-17 09:42 36.25017 28.72461 36741 ft 465 kts 113°
2026-04-17 09:42 36.22706 28.79960 36737 ft 465 kts 113°
2026-04-17 09:43 36.20408 28.87397 36738 ft 465 kts 113°
2026-04-17 09:43 36.18091 28.94890 36736 ft 465 kts 113°
2026-04-17 09:44 36.15782 29.02366 36740 ft 465 kts 113°
2026-04-17 09:44 36.13473 29.09860 36728 ft 466 kts 113°
2026-04-17 09:45 36.11166 29.17345 36721 ft 466 kts 113°
2026-04-17 09:45 36.08874 29.24780 36736 ft 466 kts 113°
2026-04-17 09:46 36.06580 29.32296 36728 ft 469 kts 114°
2026-04-17 09:46 36.04298 29.39860 36725 ft 470 kts 113°
2026-04-17 09:47 36.02027 29.47423 36720 ft 470 kts 113°
2026-04-17 09:47 35.99756 29.54995 36723 ft 470 kts 114°
2026-04-17 09:48 35.97514 29.62563 36734 ft 469 kts 114°
2026-04-17 09:48 35.95296 29.70128 36734 ft 469 kts 113°
2026-04-17 09:49 35.93084 29.77693 36741 ft 469 kts 113°
2026-04-17 09:49 35.90875 29.85257 36735 ft 468 kts 114°
2026-04-17 09:50 35.88695 29.92802 36750 ft 466 kts 113°
2026-04-17 09:50 35.86529 30.00336 36751 ft 466 kts 113°
2026-04-17 09:51 35.84367 30.07866 36755 ft 466 kts 113°
2026-04-17 09:51 35.82206 30.15396 36763 ft 466 kts 113°
2026-04-17 09:52 35.80048 30.22937 36757 ft 467 kts 113°
2026-04-17 09:52 35.77907 30.30420 36753 ft 467 kts 113°
2026-04-17 09:53 35.75749 30.37958 36754 ft 467 kts 113°
2026-04-17 09:53 35.73591 30.45517 36753 ft 469 kts 114°
2026-04-17 09:54 35.71443 30.53118 36742 ft 471 kts 113°
2026-04-17 09:54 35.69301 30.60729 36746 ft 471 kts 113°
2026-04-17 09:55 35.66817 30.68130 36731 ft 466 kts 121°
2026-04-17 09:55 35.63735 30.75120 36723 ft 464 kts 124°
2026-04-17 09:56 35.60456 30.81950 36725 ft 464 kts 125°
2026-04-17 09:56 35.57266 30.88850 36731 ft 466 kts 121°
2026-04-17 09:57 35.54357 30.95975 36725 ft 468 kts 120°
2026-04-17 09:57 35.51568 31.03227 36737 ft 471 kts 120°
2026-04-17 09:58 35.48841 31.10490 36722 ft 472 kts 119°
2026-04-17 09:58 35.46114 31.17815 36725 ft 472 kts 119°
2026-04-17 09:59 35.43387 31.25155 36306 ft 471 kts 119°
2026-04-17 09:59 35.42058 31.28748 35902 ft 455 kts 119°
2026-04-17 09:59 35.40777 31.32236 35411 ft 443 kts 119°
2026-04-17 10:00 35.39529 31.35636 34925 ft 432 kts 119°
2026-04-17 10:00 35.38311 31.38956 34428 ft 422 kts 119°
2026-04-17 10:00 35.37118 31.42203 33943 ft 413 kts 119°
2026-04-17 10:00 35.35938 31.45372 33461 ft 404 kts 120°
2026-04-17 10:01 35.34720 31.48458 32908 ft 401 kts 121°
2026-04-17 10:01 35.33473 31.51503 32371 ft 399 kts 122°
2026-04-17 10:01 35.32216 31.54521 31690 ft 396 kts 122°
2026-04-17 10:01 35.30966 31.57511 31064 ft 392 kts 122°
2026-04-17 10:02 35.29733 31.60469 30452 ft 388 kts 122°
2026-04-17 10:02 35.28511 31.63386 29864 ft 382 kts 123°
2026-04-17 10:02 35.27251 31.66237 29157 ft 377 kts 124°
2026-04-17 10:02 35.25976 31.69015 28466 ft 373 kts 124°
2026-04-17 10:03 35.24695 31.71760 27790 ft 369 kts 125°
2026-04-17 10:03 35.23425 31.74463 27141 ft 364 kts 125°
2026-04-17 10:03 35.22167 31.77127 26518 ft 360 kts 126°
2026-04-17 10:03 35.20915 31.79765 25877 ft 357 kts 125°
2026-04-17 10:04 35.19673 31.82377 25233 ft 354 kts 125°
2026-04-17 10:04 35.18443 31.84975 24635 ft 351 kts 125°
2026-04-17 10:04 35.17230 31.87546 24059 ft 348 kts 125°
2026-04-17 10:04 35.16027 31.90094 23492 ft 345 kts 125°
2026-04-17 10:05 35.14848 31.92587 22860 ft 342 kts 126°
2026-04-17 10:05 35.13665 31.95093 22205 ft 339 kts 125°
2026-04-17 10:05 35.12506 31.97568 21672 ft 333 kts 126°
2026-04-17 10:05 35.11374 32.00006 21153 ft 327 kts 126°
2026-04-17 10:06 35.10267 32.02410 20647 ft 322 kts 125°
2026-04-17 10:06 35.09185 32.04776 20151 ft 320 kts 126°
2026-04-17 10:06 35.08103 32.07160 19651 ft 319 kts 126°
2026-04-17 10:06 35.07041 32.09524 19156 ft 318 kts 126°
2026-04-17 10:07 35.05991 32.11888 18671 ft 316 kts 126°
2026-04-17 10:07 35.04956 32.14241 18209 ft 313 kts 126°
2026-04-17 10:07 35.03935 32.16579 17818 ft 310 kts 125°
2026-04-17 10:07 35.02931 32.18894 17419 ft 309 kts 125°
2026-04-17 10:08 35.01931 32.21205 17021 ft 307 kts 125°
2026-04-17 10:08 35.00937 32.23508 16632 ft 306 kts 125°
2026-04-17 10:08 34.99947 32.25805 16236 ft 304 kts 125°
2026-04-17 10:08 34.98968 32.28082 15860 ft 303 kts 125°
2026-04-17 10:09 34.97990 32.30360 15480 ft 302 kts 125°
2026-04-17 10:09 34.97019 32.32625 15112 ft 301 kts 125°
2026-04-17 10:09 34.96049 32.34882 14722 ft 300 kts 125°
2026-04-17 10:09 34.95084 32.37135 14359 ft 300 kts 125°
2026-04-17 10:10 34.94120 32.39390 13997 ft 300 kts 125°
2026-04-17 10:10 34.93160 32.41636 13644 ft 299 kts 125°
2026-04-17 10:10 34.92199 32.43883 13279 ft 298 kts 125°
2026-04-17 10:11 34.90289 32.48327 12499 ft 294 kts 125°
2026-04-17 10:11 34.89340 32.50518 12129 ft 291 kts 125°
2026-04-17 10:11 34.88394 32.52692 11746 ft 289 kts 125°
2026-04-17 10:11 34.87446 32.54836 11354 ft 285 kts 127°
2026-04-17 10:12 34.86391 32.56814 10990 ft 280 kts 132°
2026-04-17 10:12 34.85238 32.58714 10660 ft 279 kts 134°
2026-04-17 10:12 34.84036 32.60605 10309 ft 278 kts 135°
2026-04-17 10:12 34.82862 32.62424 9950 ft 276 kts 134°
2026-04-17 10:13 34.81665 32.64231 9585 ft 272 kts 135°
2026-04-17 10:13 34.80467 32.66006 9223 ft 271 kts 135°
2026-04-17 10:13 34.79267 32.67761 8849 ft 268 kts 135°
2026-04-17 10:13 34.78072 32.69490 8474 ft 265 kts 135°
2026-04-17 10:14 34.76878 32.71192 8101 ft 264 kts 135°
2026-04-17 10:14 34.75685 32.72884 7742 ft 262 kts 135°
2026-04-17 10:14 34.74901 32.73994 7498 ft 260 kts 135°
2026-04-17 10:14 34.73723 32.75653 7141 ft 257 kts 135°
2026-04-17 10:15 34.72550 32.77285 6789 ft 255 kts 135°
2026-04-17 10:15 34.71380 32.78899 6444 ft 253 kts 135°
2026-04-17 10:15 34.70217 32.80494 6078 ft 251 kts 135°
2026-04-17 10:15 34.69061 32.82073 5736 ft 249 kts 135°
2026-04-17 10:16 34.67916 32.83635 5367 ft 247 kts 135°
2026-04-17 10:16 34.66776 32.85183 5133 ft 245 kts 135°
2026-04-17 10:16 34.65631 32.86722 4884 ft 246 kts 135°
2026-04-17 10:16 34.64482 32.88249 4818 ft 244 kts 135°
2026-04-17 10:17 34.63450 32.89902 4890 ft 250 kts 122°
2026-04-17 10:17 34.62807 32.91905 4991 ft 259 kts 111°
2026-04-17 10:17 34.62371 32.94042 4966 ft 262 kts 107°
2026-04-17 10:17 34.62015 32.96215 4750 ft 262 kts 106°
2026-04-17 10:18 34.61688 32.98384 4618 ft 259 kts 105°
2026-04-17 10:18 34.61370 33.00542 4655 ft 262 kts 105°
2026-04-17 10:18 34.61059 33.02690 4536 ft 253 kts 105°
2026-04-17 10:18 34.60773 33.04748 4410 ft 242 kts 105°
2026-04-17 10:19 34.60554 33.06738 4251 ft 236 kts 95°
2026-04-17 10:19 34.60892 33.08695 4064 ft 238 kts 76°
2026-04-17 10:19 34.61558 33.10512 3930 ft 235 kts 70°
2026-04-17 10:19 34.62324 33.12287 3812 ft 239 kts 68°
2026-04-17 10:20 34.63128 33.14056 3691 ft 239 kts 68°
2026-04-17 10:20 34.63942 33.15810 3566 ft 238 kts 67°
2026-04-17 10:20 34.64721 33.17555 3433 ft 238 kts 70°
2026-04-17 10:20 34.65380 33.19386 3328 ft 235 kts 73°
2026-04-17 10:21 34.65977 33.21231 3204 ft 234 kts 75°
2026-04-17 10:21 34.66555 33.23078 3087 ft 232 kts 74°
2026-04-17 10:21 34.67105 33.24853 2820 ft 215 kts 75°
2026-04-17 10:21 34.67623 33.26540 2700 ft 210 kts 75°
2026-04-17 10:22 34.68028 33.28213 2582 ft 203 kts 82°
2026-04-17 10:22 34.68290 33.29877 2442 ft 198 kts 84°
2026-04-17 10:22 34.68504 33.31516 2311 ft 195 kts 86°
2026-04-17 10:22 34.68604 33.33129 2205 ft 189 kts 88°
2026-04-17 10:23 34.68799 33.34721 1980 ft 192 kts 80°
2026-04-17 10:23 34.69143 33.36264 1873 ft 182 kts 72°
2026-04-17 10:23 34.69611 33.37598 2008 ft 166 kts 66°
2026-04-17 10:23 34.70220 33.38808 1992 ft 166 kts 62°
2026-04-17 10:24 34.70878 33.39910 1944 ft 158 kts 58°
2026-04-17 10:24 34.71544 33.40983 1968 ft 159 kts 57°
2026-04-17 10:24 34.72218 33.42069 1981 ft 162 kts 58°
2026-04-17 10:24 34.72923 33.43125 1974 ft 161 kts 56°
2026-04-17 10:25 34.73663 33.44152 1973 ft 160 kts 55°
2026-04-17 10:25 34.74405 33.45165 1975 ft 161 kts 55°
2026-04-17 10:25 34.75142 33.46194 1922 ft 163 kts 55°
2026-04-17 10:25 34.75872 33.47254 1764 ft 163 kts 54°
2026-04-17 10:26 34.76585 33.48310 1561 ft 160 kts 53°
2026-04-17 10:26 34.77269 33.49333 1453 ft 151 kts 52°
2026-04-17 10:26 34.77932 33.50285 1256 ft 146 kts 52°
2026-04-17 10:26 34.78578 33.51214 1023 ft 147 kts 51°
2026-04-17 10:27 34.79218 33.52184 868 ft 145 kts 49°
2026-04-17 10:27 34.79818 33.53205 894 ft 151 kts 49°
2026-04-17 10:27 34.80458 33.54234 989 ft 157 kts 47°
2026-04-17 10:27 34.81174 33.55255 975 ft 159 kts 44°
2026-04-17 10:28 34.81921 33.56222 945 ft 155 kts 40°
2026-04-17 10:28 34.82715 33.57128 855 ft 158 kts 38°
2026-04-17 10:28 34.83594 33.57912 894 ft 156 kts 33°
2026-04-17 10:28 34.84413 33.58790 853 ft 156 kts 38°
2026-04-17 10:29 34.85158 33.59661 704 ft 146 kts 40°
2026-04-17 10:29 34.85884 33.60525 429 ft 146 kts 42°
2026-04-17 10:29 34.86573 33.61439 113 ft 145 kts 43°
2026-04-17 10:29 34.87260 33.62256 22 ft 130 kts 45°
2026-04-17 10:30 34.87609 33.62675 19 ft 33 kts 46°
2026-04-17 10:30 34.87714 33.62808 22 ft 12 kts 44°
2026-04-17 10:30 34.87757 33.62857 24 ft 10 kts 44°
2026-04-17 10:30 34.87823 33.62907 21 ft 13 kts
2026-04-17 10:31 34.87879 33.62893 21 ft 0 kts 351°
2026-04-17 10:31 34.87890 33.62890 21 ft 3 kts 341°
2026-04-17 10:31 34.87910 33.62868 20 ft 5 kts 305°
2026-04-17 10:31 34.87943 33.62808 17 ft 12 kts 298°
2026-04-17 10:32 34.87921 33.62699 19 ft 17 kts 231°
2026-04-17 10:32 34.87829 33.62584 19 ft 21 kts 223°
2026-04-17 10:32 34.87809 33.62562 20 ft 3 kts 222°
2026-04-17 10:32 34.87782 33.62531 18 ft 8 kts 224°
2026-04-17 10:33 34.87727 33.62464 20 ft 14 kts 225°
2026-04-17 10:33 34.87683 33.62409 18 ft 7 kts 226°
2026-04-17 10:33 34.87595 33.62299 20 ft 29 kts 225°
2026-04-17 10:33 34.87425 33.62092 21 ft 30 kts 226°
2026-04-17 10:34 34.87342 33.61987 21 ft 6 kts 226°
2026-04-17 10:34 34.87336 33.61981 22 ft 0 kts 226°
2026-04-17 10:35 34.87326 33.61968 20 ft 10 kts 225°
2026-04-17 10:36 34.86880 33.60960 20 ft 0 kts 45°